QPF
0.00 0.00 0.00 0.00 0.00 0.00 0.00 0.00 0.00 0.00 0.00 0.00 0.00 0.00 0.00 0.00 0.00 0.00 0.00 0.00 0.00 0.00 0.00 0.00 0.00 0.00 0.00 0.00 0.00 0.00 0.00 0.00 0.00 0.00 0.00 0.00 0.00 0.00 0.00 0.00 0.00 0.00 0.00 0.00
0.00 0.00 0.00 0.00 0.00 0.00 0.00 0.00 0.00 0.00 0.00 0.00 0.00 0.00 0.00 0.00 0.00 0.00 0.00 0.00 0.00 0.00 0.00 0.00 0.00 0.00 0.00 0.00 0.00 0.00 0.00 0.00 0.00 0.00 0.00 0.00 0.00 0.00 0.00 0.00 0.00 0.00 0.00 0.00
0.00 0.00 0.00 0.00 0.00 0.00 0.00 0.00 0.00 0.00 0.00 0.00 0.00 0.00 0.00 0.00 0.00 0.00 0.00 0.00 0.00 0.00 0.00 0.00 0.00 0.00 0.00 0.00 0.00 0.00 0.00 0.00 0.00 0.00 0.00 0.00 0.00 0.00 0.00 0.00 0.00 0.00 0.00 0.00
0.00 0.00 0.00 0.00 0.00 0.00 0.00 0.00 0.00 0.00 0.00 0.00 0.00 0.00 0.00 0.00 0.00 0.00 0.00 0.00 0.00 0.00 0.00 0.00 0.00 0.00 0.00 0.00 0.00 0.00 0.00 0.00 0.00 0.00 0.00 0.00 0.00 0.00 0.00 0.00 0.00 0.00 0.00 0.00
0.00 0.00 0.00 0.00 0.00 0.00 0.00 0.00 0.00 0.00 0.00 0.00 0.00 0.00 0.00 0.00 0.00 0.00 0.00 0.00 0.00 0.00 0.00 0.00 0.00 0.00 0.00 0.00 0.00 0.00 0.00 0.00 0.00 0.00 0.00 0.00 0.00 0.00 0.00 0.00 0.00 0.00 0.00 0.00
0.00 0.00 0.00 0.00 0.00 0.00 0.00 0.00 0.00 0.00 0.00 0.00 0.00 0.00 0.00 0.00 0.00 0.00 0.00 0.00 0.00 0.00 0.00 0.00 0.00 0.00 0.00 0.00 0.00 0.00 0.00 0.00 0.00 0.00 0.00 0.00 0.00 0.00 0.00 0.00 0.00 0.00 0.00 0.00
0.00 0.00 0.00 0.00 0.00 0.00 0.00 0.00 0.00 0.00 0.00 0.00 0.00 0.00 0.00 0.00 0.00 0.00 0.00 0.00 0.00 0.00 0.00 0.00 0.00 0.00 0.00 0.00 0.00 0.00 0.00 0.00 0.00 0.00 0.00 0.00 0.00 0.00 0.00 0.00 0.00 0.00 0.00 0.00
0.00 0.00 0.00 0.00 0.00 0.00 0.00 0.00 0.00 0.00 0.00 0.00 0.00 0.00 0.00 0.00 0.00 0.00 0.00 0.00 0.00 0.00 0.00 0.00 0.00 0.00 0.00 0.00 0.00 0.00 0.00 0.00 0.00 0.00 0.00 0.00 0.00 0.00 0.00 0.00 0.00 0.00 0.00 0.00
0.00 0.00 0.00 0.00 0.00 0.00 0.00 0.00 0.00 0.00 0.00 0.00 0.00 0.00 0.00 0.00 0.00 0.00 0.00 0.00 0.00 0.00 0.00 0.00 0.00 0.00 0.00 0.00 0.00 0.00 0.00 0.00 0.00 0.00 0.00 0.00 0.00 0.00 0.00 0.00 0.00 0.00 0.00 0.00
0.00 0.00 0.00 0.00 0.00 0.00 0.00 0.00 0.00 0.00 0.00 0.00 0.00 0.00 0.00 0.00 0.00 0.00 0.00 0.00 0.00 0.00 0.00 0.00 0.00 0.00 0.00 0.00 0.00 0.00 0.00 0.00 0.00 0.00 0.00 0.00 0.00 0.00 0.00 0.00 0.00 0.00 0.00 0.00
0.00 0.00 0.00 0.00 0.00 0.00 0.00 0.00 0.00 0.00 0.00 0.00 0.00 0.00 0.00 0.00 0.00 0.00 0.00 0.00 0.00 0.00 0.00 0.00 0.00 0.00 0.00 0.00 0.00 0.00 0.00 0.00 0.00 0.00 0.00 0.00 0.00 0.00 0.00 0.00 0.00 0.00 0.00 0.00
0.00 0.00 0.00 0.00 0.00 0.00 0.00 0.00 0.00 0.00 0.00 0.00 0.00 0.00 0.00 0.00 0.00 0.00 0.00 0.00 0.00 0.00 0.00 0.00 0.00 0.00 0.00 0.00 0.00 0.00 0.00 0.00 0.00 0.00 0.00 0.00 0.00 0.00 0.00 0.00 0.00 0.00 0.00 0.00
0.00 0.00 0.00 0.00 0.00 0.00 0.00 0.00 0.00 0.00 0.00 0.00 0.00 0.00 0.00 0.00 0.00 0.00 0.00 0.00 0.00 0.00 0.00 0.00 0.00 0.00 0.00 0.00 0.00 0.00 0.00 0.00 0.00 0.00 0.00 0.00 0.00 0.00 0.00 0.00 0.00 0.00 0.00 0.00
0.00 0.00 0.00 0.00 0.00 0.00 0.00 0.00 0.00 0.00 0.00 0.00 0.00 0.00 0.00 0.00 0.00 0.00 0.00 0.00 0.00 0.00 0.00 0.00 0.00 0.00 0.00 0.00 0.00 0.00 0.00 0.00 0.00 0.00 0.00 0.00 0.00 0.00 0.00 0.00 0.00 0.00 0.00 0.00
0.00 0.00 0.00 0.00 0.00 0.00 0.00 0.00 0.00 0.00 0.00 0.00 0.00 0.00 0.00 0.00 0.00 0.00 0.00 0.00 0.00 0.00 0.00 0.00 0.00 0.00 0.00 0.00 0.00 0.00 0.00 0.00 0.00 0.00 0.00 0.00 0.00 0.00 0.00 0.00 0.00 0.00 0.00 0.00
0.00 0.00 0.00 0.00 0.00 0.00 0.00 0.00 0.00 0.00 0.00 0.00 0.00 0.00 0.00 0.00 0.00 0.00 0.00 0.00 0.00 0.00 0.00 0.00 0.00 0.00 0.00 0.00 0.00 0.00 0.00 0.00 0.00 0.00 0.00 0.00 0.00 0.00 0.00 0.00 0.00 0.00 0.00 0.00
0.00 0.00 0.00 0.00 0.00 0.00 0.00 0.00 0.00 0.00 0.00 0.00 0.00 0.00 0.00 0.00 0.00 0.00 0.00 0.00 0.00 0.00 0.00 0.00 0.00 0.00 0.00 0.00 0.00 0.00 0.00 0.00 0.00 0.00 0.00 0.00 0.00 0.00 0.00 0.00 0.00 0.00 0.00 0.00
0.00 0.00 0.00 0.00 0.00 0.00 0.00 0.00 0.00 0.00 0.00 0.00 0.00 0.00 0.00 0.00 0.00 0.00 0.00 0.00 0.00 0.00 0.00 0.00 0.00 0.00 0.00 0.00 0.00 0.00 0.00 0.00 0.00 0.00 0.00 0.00 0.00 0.00 0.00 0.00 0.00 0.00 0.00 0.00
0.00 0.00 0.00 0.00 0.00 0.00 0.00 0.00 0.00 0.00 0.00 0.00 0.00 0.00 0.00 0.00 0.00 0.00 0.00 0.00 0.00 0.00 0.00 0.00 0.00 0.00 0.00 0.00 0.00 0.00 0.00 0.00 0.00 0.00 0.00 0.00 0.00 0.00 0.00 0.00 0.00 0.00 0.00 0.00
0.00 0.00 0.00 0.00 0.00 0.00 0.00 0.00 0.00 0.00 0.00 0.00 0.00 0.00 0.00 0.00 0.00 0.00 0.00 0.00 0.00 0.00 0.00 0.00 0.00 0.00 0.00 0.00 0.00 0.00 0.00 0.00 0.00 0.00 0.00 0.00 0.00 0.00 0.00 0.00 0.00 0.00 0.00 0.00
0.00 0.00 0.00 0.00 0.00 0.00 0.00 0.00 0.00 0.00 0.00 0.00 0.00 0.00 0.00 0.00 0.00 0.00 0.00 0.00 0.00 0.00 0.00 0.00 0.00 0.00 0.00 0.00 0.00 0.00 0.00 0.00 0.00 0.00 0.00 0.00 0.00 0.00 0.00 0.00 0.00 0.00 0.00 0.00
0.00 0.00 0.00 0.00 0.00 0.00 0.00 0.00 0.00 0.00 0.00 0.00 0.00 0.00 0.00 0.00 0.00 0.00 0.00 0.00 0.00 0.00 0.00 0.00 0.00 0.00 0.00 0.00 0.00 0.00 0.00 0.00 0.00 0.00 0.00 0.00 0.00 0.00 0.00 0.00 0.00 0.00 0.00 0.00
0.00 0.00 0.00 0.00 0.00 0.00 0.00 0.00 0.00 0.00 0.00 0.00 0.00 0.00 0.00 0.00 0.00 0.00 0.00 0.00 0.00 0.00 0.00 0.00 0.00 0.00 0.00 0.00 0.00 0.00 0.00 0.00 0.00 0.00 0.00 0.00 0.00 0.00 0.00 0.00 0.00 0.00 0.00 0.00
0.00 0.00 0.00 0.00 0.00 0.00 0.00 0.00 0.00 0.00 0.00 0.00 0.00 0.00 0.00 0.00 0.00 0.00 0.00 0.00 0.00 0.00 0.00 0.00 0.00 0.00 0.00 0.00 0.00 0.00 0.00 0.00 0.00 0.00 0.00 0.00 0.00 0.00 0.00 0.00 0.00 0.00 0.00 0.00
0.00 0.00 0.00 0.00 0.00 0.00 0.00 0.00 0.00 0.00 0.00 0.00 0.00 0.00 0.00 0.00 0.00 0.00 0.00 0.00 0.00 0.00 0.00 0.00 0.00 0.00 0.00 0.00 0.00 0.00 0.00 0.00 0.00 0.00 0.00 0.00 0.00 0.00 0.00 0.00 0.00 0.00 0.00 0.00
0.00 0.00 0.00 0.00 0.00 0.00 0.00 0.00 0.00 0.00 0.00 0.00 0.00 0.00 0.00 0.00 0.00 0.00 0.00 0.00 0.00 0.00 0.00 0.00 0.00 0.00 0.00 0.00 0.00 0.00 0.00 0.00 0.00 0.00 0.00 0.00 0.00 0.00 0.00 0.00 0.00 0.00 0.00 0.00
MSLP
1016.23 1016.14 1015.41 1015.11 1014.98 1013.87 1013.74 1013.66 1013.69 1014.48 1015.01 1014.73 1014.31 1014.33 1014.61 1014.54 1014.82 1014.89 1014.63 1014.66 1014.78 1014.93 1015.17 1015.51 1015.87 1016.50 1017.09 1017.42 1017.74 1018.00 1018.57 1019.03 1019.59 1020.04 1020.20 1020.53 1020.70 1021.01 1021.30 1021.29 1021.11 1021.10 1021.04 1021.35
1016.54 1016.44 1016.17 1015.31 1015.02 1014.12 1013.94 1013.77 1014.48 1015.13 1015.28 1015.05 1014.93 1015.18 1015.71 1015.55 1015.47 1015.42 1015.21 1015.11 1015.20 1015.30 1015.46 1015.84 1016.33 1016.64 1017.00 1017.18 1017.45 1017.87 1018.14 1018.62 1019.15 1019.63 1019.93 1019.84 1020.07 1020.58 1021.02 1020.95 1020.92 1020.95 1020.95 1020.92
1016.17 1017.15 1016.22 1015.48 1015.28 1014.77 1014.72 1014.10 1014.46 1014.67 1015.36 1015.79 1015.80 1016.07 1015.91 1016.28 1016.06 1016.15 1016.05 1016.22 1016.39 1016.42 1016.56 1016.73 1016.80 1016.77 1016.96 1017.13 1017.47 1017.82 1018.22 1018.49 1018.88 1019.35 1019.57 1019.77 1020.25 1020.64 1020.84 1020.71 1020.64 1020.57 1020.74 1020.81
1016.97 1016.87 1016.26 1015.93 1015.47 1014.46 1014.58 1014.46 1014.47 1014.86 1015.41 1015.79 1016.27 1016.49 1016.53 1016.44 1016.48 1016.71 1016.86 1016.81 1016.94 1017.09 1017.44 1017.60 1017.47 1017.61 1017.75 1017.63 1017.78 1018.03 1018.29 1018.51 1018.73 1019.18 1019.33 1019.42 1019.75 1019.67 1019.39 1019.40 1019.40 1019.90 1020.41 1020.36
1017.54 1017.00 1016.31 1016.15 1015.81 1014.61 1015.12 1014.99 1014.99 1015.07 1015.31 1015.64 1016.38 1016.28 1016.79 1016.70 1017.03 1017.44 1017.44 1017.45 1017.73 1017.88 1017.97 1018.01 1018.06 1018.31 1018.37 1018.06 1018.41 1018.50 1018.54 1018.67 1018.89 1019.06 1019.11 1019.09 1019.11 1019.13 1019.00 1019.12 1019.12 1019.66 1019.92 1019.92
1016.29 1016.55 1016.47 1016.22 1016.09 1015.24 1015.49 1015.46 1015.58 1015.83 1015.84 1016.23 1017.03 1016.85 1017.04 1017.03 1017.87 1017.93 1018.24 1018.36 1018.42 1018.41 1018.32 1018.29 1018.41 1018.41 1018.32 1018.42 1018.68 1018.72 1018.68 1018.61 1018.62 1018.75 1018.93 1018.94 1018.86 1018.83 1018.79 1018.80 1018.80 1019.26 1019.49 1019.42
1016.25 1016.81 1016.80 1016.52 1016.28 1016.26 1015.88 1015.60 1015.97 1016.32 1016.36 1017.09 1017.64 1017.15 1017.51 1017.94 1017.97 1018.33 1018.67 1018.67 1018.75 1018.60 1018.51 1018.41 1018.53 1018.52 1018.59 1018.69 1018.91 1018.91 1018.83 1018.70 1018.54 1018.52 1018.48 1018.45 1018.26 1018.29 1018.36 1018.27 1018.21 1018.29 1018.37 1018.71
1017.45 1018.34 1018.17 1017.92 1017.48 1016.81 1016.71 1016.45 1015.98 1016.29 1016.87 1017.31 1017.91 1017.37 1018.07 1018.49 1018.70 1018.99 1018.93 1018.86 1018.75 1018.85 1018.47 1018.50 1018.68 1018.65 1018.53 1018.56 1018.69 1018.75 1018.75 1018.84 1018.83 1018.84 1018.79 1018.68 1018.35 1018.16 1018.22 1018.22 1018.13 1017.82 1017.75 1017.81
1017.73 1018.79 1018.91 1018.62 1018.20 1017.94 1017.44 1017.20 1017.50 1017.27 1018.32 1017.73 1017.38 1017.84 1018.45 1018.74 1019.07 1018.97 1018.89 1019.11 1019.08 1018.92 1018.56 1018.63 1018.59 1018.89 1019.02 1019.02 1018.98 1018.95 1018.97 1018.89 1018.82 1018.92 1018.81 1018.58 1018.36 1018.32 1018.06 1017.90 1017.89 1017.66 1017.50 1017.43
1017.75 1018.55 1019.10 1019.04 1018.83 1018.59 1018.29 1018.25 1018.20 1017.80 1017.86 1017.54 1017.38 1017.09 1016.67 1017.87 1018.19 1018.47 1018.58 1018.86 1018.86 1018.74 1018.83 1019.04 1019.16 1019.24 1019.22 1019.27 1019.26 1019.12 1018.98 1018.97 1019.02 1019.02 1018.86 1018.57 1018.34 1018.06 1017.86 1017.66 1017.37 1017.33 1017.19 1017.13
1017.65 1017.94 1019.66 1019.59 1019.22 1019.10 1019.37 1018.92 1018.75 1018.16 1018.01 1017.50 1017.13 1015.99 1015.17 1016.26 1017.13 1017.68 1018.26 1018.58 1018.41 1018.50 1018.64 1019.08 1019.36 1019.49 1019.58 1019.56 1019.49 1019.35 1019.25 1019.13 1019.10 1019.04 1018.85 1018.61 1018.36 1018.03 1017.69 1017.36 1017.04 1016.78 1016.59 1016.49
1018.04 1018.26 1019.27 1019.60 1019.85 1019.87 1019.17 1018.27 1017.89 1017.62 1018.15 1017.67 1017.25 1016.19 1015.50 1015.85 1016.50 1017.47 1017.53 1017.84 1018.15 1018.58 1018.65 1019.06 1019.47 1019.66 1019.80 1019.82 1019.65 1019.40 1019.18 1019.10 1018.95 1018.85 1018.69 1018.41 1018.15 1017.89 1017.42 1016.91 1016.55 1016.30 1015.91 1015.78
1018.11 1018.78 1019.36 1019.82 1019.93 1019.52 1018.98 1018.48 1017.93 1017.97 1017.81 1017.61 1017.18 1015.94 1015.89 1015.95 1016.52 1016.89 1017.12 1017.50 1018.03 1018.19 1018.49 1019.07 1019.53 1019.74 1019.80 1019.79 1019.61 1019.41 1019.17 1019.00 1018.75 1018.57 1018.46 1018.07 1017.68 1017.29 1016.94 1016.40 1015.99 1015.78 1015.53 1015.24
1018.25 1018.58 1018.75 1018.91 1018.87 1018.69 1018.96 1018.50 1018.35 1017.95 1017.69 1017.01 1016.00 1015.59 1015.51 1015.63 1015.82 1016.31 1016.39 1017.03 1017.78 1018.34 1018.87 1019.28 1019.48 1019.73 1019.75 1019.66 1019.49 1019.31 1019.04 1018.81 1018.67 1018.52 1018.28 1017.87 1017.43 1017.07 1016.61 1016.24 1015.84 1015.44 1015.10 1014.68
1019.11 1019.43 1019.70 1019.94 1019.88 1019.56 1019.20 1018.79 1018.45 1017.90 1017.22 1016.68 1015.37 1015.11 1015.00 1014.69 1015.09 1015.75 1016.73 1017.59 1018.10 1018.41 1018.85 1019.26 1019.60 1019.73 1019.74 1019.65 1019.22 1018.88 1018.90 1018.78 1018.63 1018.38 1018.05 1017.78 1017.44 1016.87 1016.43 1015.93 1015.40 1015.14 1014.75 1014.22
1019.87 1020.63 1020.75 1021.34 1020.94 1020.67 1020.15 1019.38 1018.55 1017.94 1017.39 1016.35 1016.23 1014.83 1015.52 1015.39 1015.70 1016.38 1017.07 1017.58 1017.85 1018.25 1018.60 1019.03 1019.44 1019.58 1019.48 1019.29 1018.91 1019.00 1018.62 1018.45 1018.27 1017.85 1017.54 1017.08 1016.69 1016.21 1016.04 1015.49 1014.95 1014.54 1014.15 1013.60
1020.72 1021.29 1021.72 1022.38 1022.22 1021.67 1020.57 1017.93 1017.51 1017.28 1016.67 1016.13 1015.98 1015.04 1015.53 1016.01 1016.42 1016.84 1017.21 1017.47 1017.64 1018.12 1018.41 1018.62 1018.88 1019.10 1019.18 1019.13 1019.02 1018.77 1018.39 1017.96 1017.75 1017.39 1016.85 1016.54 1016.25 1015.70 1015.18 1014.91 1014.49 1014.08 1013.51 1013.07
1021.22 1021.56 1021.90 1022.98 1022.73 1021.05 1017.24 1017.23 1017.23 1016.59 1015.76 1015.61 1015.20 1015.15 1015.57 1016.35 1016.76 1017.13 1017.39 1017.59 1017.71 1017.90 1018.00 1018.20 1018.62 1018.75 1018.91 1018.91 1018.73 1018.38 1018.12 1017.88 1017.53 1017.11 1016.69 1016.26 1015.86 1015.23 1014.85 1014.32 1013.89 1013.40 1012.99 1012.51
1021.48 1021.35 1022.43 1022.71 1022.04 1019.32 1016.16 1016.33 1016.78 1016.40 1014.48 1013.99 1014.11 1014.93 1015.62 1016.27 1017.17 1016.65 1016.72 1017.22 1017.39 1017.52 1017.81 1017.92 1018.07 1018.42 1018.55 1018.39 1018.25 1018.09 1017.76 1017.54 1017.23 1016.58 1016.34 1015.81 1015.36 1014.85 1014.47 1013.97 1013.21 1012.51 1012.15 1011.77
1022.11 1021.62 1021.57 1022.74 1021.54 1019.35 1016.60 1016.59 1016.24 1016.16 1014.62 1012.80 1013.25 1014.05 1015.06 1016.21 1016.28 1015.69 1016.34 1016.76 1017.15 1017.71 1017.73 1017.55 1017.76 1018.37 1018.41 1017.94 1017.72 1017.77 1017.27 1016.91 1016.49 1016.24 1015.82 1015.48 1015.22 1014.79 1014.04 1013.45 1012.80 1012.08 1011.50 1011.01
1022.00 1021.89 1021.36 1021.87 1020.98 1018.10 1015.98 1016.52 1016.65 1016.21 1013.85 1013.14 1013.10 1013.82 1014.66 1015.26 1015.09 1015.40 1015.94 1016.41 1016.73 1017.60 1017.70 1017.37 1017.44 1017.79 1017.66 1017.22 1017.11 1016.95 1016.51 1015.92 1015.69 1015.42 1015.11 1014.81 1014.50 1014.02 1013.46 1012.70 1012.22 1011.61 1010.88 1010.35
1019.92 1020.49 1020.71 1021.25 1020.92 1017.87 1015.26 1016.51 1015.62 1013.49 1013.30 1013.39 1013.66 1014.25 1014.80 1014.96 1015.19 1015.44 1015.95 1016.21 1016.50 1017.15 1017.13 1017.09 1017.13 1017.03 1017.02 1016.74 1016.69 1016.20 1015.51 1014.80 1014.91 1014.74 1014.52 1014.16 1013.78 1013.42 1012.92 1012.32 1011.45 1011.11 1010.33 1009.56
1019.33 1017.41 1017.55 1017.44 1016.00 1015.13 1014.14 1013.58 1013.68 1013.47 1013.71 1013.92 1013.77 1014.30 1014.79 1015.20 1015.39 1015.39 1015.63 1015.91 1016.25 1016.51 1016.61 1016.55 1016.52 1016.23 1016.12 1016.14 1016.15 1015.61 1014.40 1014.56 1014.30 1014.14 1013.95 1013.64 1013.07 1012.42 1011.95 1011.56 1010.60 1010.01 1009.53 1008.79
1017.98 1017.52 1016.90 1016.53 1014.25 1014.43 1014.38 1013.90 1014.06 1014.22 1014.38 1014.21 1014.32 1014.68 1015.08 1015.43 1015.55 1015.58 1015.75 1015.86 1016.10 1016.19 1016.21 1016.15 1016.06 1015.70 1015.31 1015.44 1015.34 1014.87 1014.20 1014.07 1013.87 1013.58 1013.22 1012.79 1012.27 1011.28 1010.81 1010.31 1009.80 1009.12 1008.49 1008.06
1015.47 1016.09 1015.80 1014.81 1013.90 1013.97 1013.61 1013.48 1013.29 1013.87 1014.50 1014.62 1014.62 1015.07 1015.50 1015.81 1015.81 1015.67 1015.53 1015.70 1015.92 1016.01 1015.90 1015.77 1015.55 1015.14 1014.94 1015.05 1014.77 1014.13 1013.77 1013.84 1013.53 1012.94 1012.35 1011.75 1011.36 1010.54 1009.55 1009.00 1008.49 1007.89 1007.17 1006.96
1013.73 1013.04 1013.12 1011.40 1011.49 1011.17 1011.03 1011.51 1012.23 1013.56 1013.83 1013.98 1014.56 1015.00 1015.41 1015.95 1016.04 1015.99 1015.71 1015.62 1015.61 1015.55 1015.47 1015.28 1015.11 1015.04 1014.68 1014.55 1014.33 1013.60 1013.57 1013.59 1013.21 1012.32 1011.56 1010.93 1010.40 1009.74 1009.03 1008.20 1007.01 1006.68 1006.14 1005.88
Thickness
5595 5605 5616 5625 5624 5643 5646 5649 5646 5642 5640 5646 5655 5654 5654 5664 5662 5660 5667 5670 5671 5670 5673 5674 5674 5671 5666 5663 5661 5658 5653 5649 5644 5640 5637 5633 5629 5626 5622 5620 5619 5617 5616 5612
5594 5597 5601 5614 5619 5631 5637 5634 5626 5628 5633 5639 5642 5637 5635 5643 5647 5651 5655 5660 5663 5664 5665 5664 5662 5663 5660 5658 5656 5652 5650 5646 5640 5634 5630 5630 5627 5622 5616 5616 5613 5610 5609 5606
5593 5585 5595 5607 5612 5616 5615 5629 5626 5631 5623 5624 5623 5621 5630 5632 5639 5642 5646 5646 5646 5647 5648 5649 5651 5654 5654 5652 5648 5646 5641 5639 5635 5629 5625 5623 5617 5614 5610 5610 5608 5605 5601 5598
5579 5582 5592 5599 5605 5624 5614 5627 5628 5622 5620 5617 5613 5603 5614 5625 5628 5630 5632 5636 5636 5637 5636 5636 5639 5638 5640 5642 5641 5637 5635 5632 5629 5624 5620 5618 5614 5614 5614 5612 5611 5602 5597 5595
5564 5576 5589 5592 5594 5614 5602 5615 5616 5618 5618 5618 5605 5612 5609 5621 5614 5615 5621 5625 5624 5625 5626 5627 5629 5628 5629 5633 5628 5626 5625 5623 5619 5616 5613 5612 5611 5608 5608 5604 5603 5595 5591 5589
5579 5583 5585 5590 5592 5604 5602 5602 5602 5604 5606 5597 5587 5600 5604 5608 5600 5606 5609 5611 5613 5616 5619 5621 5621 5621 5621 5620 5617 5615 5615 5614 5613 5610 5606 5604 5602 5600 5599 5597 5595 5588 5584 5582
5579 5574 5580 5584 5588 5590 5594 5597 5587 5586 5589 5590 5574 5592 5595 5594 5602 5601 5600 5602 5605 5610 5612 5612 5612 5611 5609 5609 5606 5604 5603 5603 5603 5602 5600 5597 5596 5594 5590 5589 5587 5584 5581 5574
5556 5553 5560 5566 5570 5580 5581 5587 5593 5585 5585 5588 5568 5585 5583 5588 5591 5590 5594 5598 5601 5601 5603 5603 5600 5601 5601 5600 5598 5596 5594 5591 5589 5587 5584 5583 5584 5584 5580 5576 5573 5573 5569 5565
5557 5547 5551 5556 5563 5568 5572 5576 5574 5570 5550 5573 5584 5579 5576 5580 5580 5585 5588 5587 5588 5591 5594 5594 5594 5590 5588 5587 5587 5585 5581 5579 5577 5574 5573 5572 5570 5567 5566 5564 5559 5557 5554 5551
5559 5549 5547 5552 5557 5561 5562 5565 5564 5567 5561 5565 5575 5577 5594 5576 5580 5582 5583 5581 5582 5583 5582 5581 5580 5578 5576 5573 5571 5570 5569 5567 5564 5561 5559 5557 5555 5553 5551 5548 5546 5542 5539 5536
5558 5560 5541 5546 5551 5552 5550 5550 5552 5565 5562 5566 5567 5584 5604 5587 5584 5581 5576 5574 5578 5578 5577 5571 5566 5563 5560 5558 5556 5554 5552 5549 5546 5544 5542 5539 5536 5534 5533 5532 5530 5528 5526 5523
5553 5555 5546 5546 5540 5540 5549 5563 5569 5567 5551 5561 5560 5575 5589 5590 5584 5575 5576 5576 5574 5569 5566 5561 5555 5551 5547 5544 5542 5541 5539 5536 5533 5530 5526 5522 5520 5518 5517 5517 5516 5514 5514 5510
5549 5535 5535 5536 5541 5543 5549 5555 5564 5562 5563 5553 5553 5577 5575 5580 5575 5572 5570 5569 5564 5561 5558 5550 5543 5538 5534 5530 5528 5526 5524 5521 5520 5517 5513 5511 5509 5508 5506 5506 5503 5498 5496 5494
5545 5542 5548 5555 5552 5554 5542 5548 5553 5558 5550 5558 5566 5574 5574 5572 5571 5571 5576 5570 5561 5554 5548 5542 5538 5532 5528 5524 5521 5518 5516 5513 5509 5505 5501 5498 5496 5493 5492 5489 5487 5485 5483 5481
5536 5525 5526 5528 5532 5539 5543 5545 5543 5549 5559 5557 5575 5571 5579 5583 5581 5576 5566 5555 5549 5545 5540 5533 5526 5521 5517 5512 5511 5510 5505 5500 5496 5492 5489 5484 5480 5480 5478 5475 5474 5470 5467 5466
5520 5502 5507 5493 5515 5516 5511 5534 5545 5549 5552 5561 5560 5566 5569 5571 5568 5561 5552 5546 5541 5535 5530 5522 5514 5509 5505 5502 5500 5494 5492 5487 5482 5479 5475 5473 5469 5468 5462 5459 5457 5455 5451 5450
5502 5495 5504 5509 5486 5494 5513 5537 5545 5552 5558 5559 5552 5565 5564 5555 5549 5544 5542 5539 5534 5526 5521 5516 5508 5503 5498 5492 5487 5483 5480 5476 5471 5467 5464 5460 5455 5454 5451 5445 5441 5436 5435 5434
5489 5495 5501 5481 5475 5511 5558 5541 5538 5554 5562 5561 5560 5561 5556 5546 5540 5535 5531 5524 5521 5517 5513 5509 5500 5495 5486 5480 5476 5474 5467 5461 5456 5451 5448 5443 5438 5437 5432 5428 5423 5420 5417 5418
5497 5504 5472 5487 5494 5524 5567 5550 5535 5536 5568 5564 5562 5553 5545 5538 5519 5525 5527 5520 5515 5510 5503 5499 5493 5485 5478 5472 5467 5461 5454 5447 5440 5437 5432 5426 5419 5415 5409 5406 5406 5405 5403 5404
5475 5493 5504 5459 5490 5514 5557 5531 5537 5539 5548 5574 5565 5552 5542 5523 5524 5534 5522 5516 5508 5497 5493 5489 5483 5472 5464 5461 5456 5448 5442 5436 5430 5421 5415 5407 5398 5393 5391 5389 5388 5389 5389 5392
5473 5476 5490 5471 5481 5514 5542 5524 5521 5528 5565 5555 5558 5547 5537 5525 5530 5526 5515 5509 5501 5488 5482 5479 5474 5465 5458 5453 5445 5439 5434 5427 5420 5412 5403 5393 5383 5378 5376 5376 5373 5374 5377 5379
5494 5484 5479 5474 5464 5489 5534 5510 5532 5555 5542 5542 5542 5534 5526 5522 5519 5515 5507 5501 5495 5484 5477 5471 5466 5461 5452 5442 5435 5432 5428 5420 5407 5398 5389 5381 5374 5367 5363 5361 5364 5362 5363 5367
5482 5510 5504 5502 5516 5508 5527 5536 5531 5532 5534 5529 5530 5523 5516 5509 5507 5505 5501 5494 5487 5479 5470 5464 5459 5456 5447 5433 5422 5418 5419 5404 5394 5384 5375 5369 5365 5361 5356 5351 5354 5354 5355 5358
5457 5459 5487 5490 5515 5505 5502 5517 5511 5511 5510 5514 5514 5510 5503 5498 5494 5488 5482 5480 5473 5467 5461 5456 5449 5445 5441 5427 5416 5407 5402 5389 5377 5370 5366 5361 5355 5356 5351 5346 5344 5346 5348 5349
5484 5466 5474 5483 5499 5493 5497 5501 5507 5503 5495 5493 5494 5489 5486 5480 5477 5476 5476 5470 5463 5457 5452 5445 5439 5435 5428 5415 5406 5400 5388 5373 5363 5360 5356 5354 5348 5346 5348 5345 5342 5343 5347 5344
5476 5492 5496 5524 5514 5523 5536 5513 5504 5494 5492 5490 5483 5477 5470 5463 5464 5461 5463 5459 5453 5447 5440 5434 5426 5418 5413 5403 5393 5385 5370 5359 5350 5348 5346 5343 5339 5337 5334 5335 5342 5340 5341 5340